Location: Brunembert
(50.7122°N, 1.8935°E)
Time: 04:19:55
(UTC+00:00)

Cosmos 1633 Rocket - Pass Details

Date: 22 April 2021
Orbit: 606 x 624 km, 82.5° (Epoch: 06 May)

Event Time Altitude Azimuth Distance (km) Brightness Sun altitude
Rises 21:55:51 0° 358° (N) 2,881 7.5 -22.0°
Reaches altitude 10° 21:58:21 10° 10° (N) 1,973 6.3 -22.2°
Maximum altitude 22:02:05 27° 69° (ENE) 1,183 4.4 -22.5°
Enters shadow 22:02:13 27° 72° (ENE) 1,184 4.4 -22.5°
